tititudorancea.com
Station Historical Data
Daily Summary for February 6, 2019 Units:  Metric    English   Both
« Previous Day
Next Day »
Daily Weekly Monthly Yearly Custom
  High: Low: Average:
Temperature: -17.8 °C 15.4 °C 20.5 °C
Dew Point: -17.8 °C 14.3 °C 16.8 °C
Humidity: Humidity % 40 % 81 %
Wind Speed: 0 km/h 0 km/h 7.1 km/h
Wind Gust: 0 km/h - -
Wind:- - South
Pressure: 0 hPa 1007 hPa -
Precipitation: 41.91 mm    
Historical Graphs
 
 
Ararat weather Find more about Weather in Ararat, AU


 



 


Tabular Data for February 6, 2019
Time Temperature Dew Point Pressure Wind Wind Speed Wind Gust Humidity Rainfall Rate (Hourly)
-17.8 °C -17.8 °C 0 hPa Calm     Humidity % 0 mm
00:04 18.7 °C 16.2 °C 1011.4 hPa South 13 km/h 8.4 km/h 85 % 0 mm
00:09 18.7 °C 16.3 °C 1011.4 hPa South 11.1 km/h 5.1 km/h 86 % 0 mm
00:14 18.6 °C 16.2 °C 1011.4 hPa South 11.1 km/h 6 km/h 86 % 0 mm
00:19 18.6 °C 16.2 °C 1011.4 hPa South 9.3 km/h 7.7 km/h 86 % 0 mm
00:24 18.6 °C 16.4 °C 1011.1 hPa South 11.1 km/h 5.6 km/h 87 % 0 mm
00:29 18.6 °C 16.4 °C 1011.1 hPa North 12.9 km/h 9 km/h 87 % 0 mm
00:34 18.6 °C 16.3 °C 1011.1 hPa South 9.7 km/h 7.2 km/h 87 % 0 mm
00:39 18.6 °C 16.3 °C 1011.1 hPa South 11.1 km/h 7.9 km/h 87 % 0 mm
00:44 18.6 °C 16.3 °C 1011.1 hPa South 11.3 km/h 6 km/h 87 % 0 mm
00:49 18.5 °C 16.3 °C 1011.1 hPa North 8 km/h 6.8 km/h 87 % 0 mm
00:54 18.4 °C 16.2 °C 1011.1 hPa South 11.1 km/h 8.2 km/h 87 % 0 mm
00:59 18.4 °C 16.4 °C 1011.1 hPa South 12.9 km/h 10.3 km/h 88 % 0 mm
01:04 18.4 °C 16.4 °C 1011.1 hPa North 11.1 km/h 3.4 km/h 88 % 0 mm
01:09 18.3 °C 16.3 °C 1010.7 hPa South 5.6 km/h 4.5 km/h 88 % 0 mm
01:14 18.3 °C 16.3 °C 1010.7 hPa North 7.4 km/h 5.6 km/h 88 % 0 mm
01:19 18.2 °C 16.2 °C 1010.7 hPa South 5.6 km/h 2.9 km/h 88 % 0 mm
01:24 18.1 °C 16.1 °C 1010.7 hPa South 5.6 km/h 2.1 km/h 88 % 0 mm
01:29 18 °C 16.2 °C 1010.7 hPa South 7.4 km/h 6.6 km/h 89 % 0 mm
01:34 18.1 °C 16.2 °C 1010.7 hPa South 7.4 km/h 7.2 km/h 89 % 0 mm
01:39 18.1 °C 16.2 °C 1010.7 hPa South 5.6 km/h 2.3 km/h 89 % 0 mm
01:44 18.1 °C 16.2 °C 1010.7 hPa South 6.4 km/h 4.7 km/h 89 % 0 mm
01:49 18.1 °C 16.2 °C 1010.7 hPa North 6.4 km/h 4.7 km/h 89 % 0 mm
01:54 18.1 °C 16.2 °C 1010.4 hPa North 5.6 km/h 2.9 km/h 89 % 0 mm
01:59 18.1 °C 16.2 °C 1010.4 hPa North 5.6 km/h 1.4 km/h 89 % 0 mm
02:04 18 °C 16.2 °C 1010.4 hPa Calm     89 % 0 mm
02:09 17.9 °C 16.1 °C 1010.4 hPa South 1.9 km/h   89 % 0 mm
02:14 17.9 °C 16.1 °C 1010.4 hPa Calm     89 % 0 mm
02:19 17.8 °C 15.9 °C 1010.4 hPa Calm     89 % 0 mm
02:24 17.7 °C 16.1 °C 1010.4 hPa North 1.9 km/h 0.2 km/h 90 % 0 mm
02:29 17.7 °C 16 °C 1010.4 hPa Calm     90 % 0 mm
02:34 17.6 °C 15.9 °C 1010.4 hPa Calm     90 % 0 mm
02:39 17.6 °C 15.9 °C 1010.4 hPa Calm     90 % 0 mm
02:44 17.5 °C 15.8 °C 1010.4 hPa Calm     90 % 0 mm
02:49 17.4 °C 15.8 °C 1010 hPa Calm     90 % 0 mm
02:54 17.4 °C 15.8 °C 1010 hPa South 3.7 km/h 0.3 km/h 90 % 0 mm
02:59 17.4 °C 15.7 °C 1010 hPa Calm     90 % 0 mm
03:04 17.3 °C 16 °C 1010 hPa Calm     92 % 0 mm
03:09 17.2 °C 15.6 °C 1010 hPa Calm     90 % 0 mm
03:14 17.2 °C 15.5 °C 1010 hPa South 3.7 km/h 1.3 km/h 90 % 0 mm
03:19 17.2 °C 15.7 °C 1010 hPa Calm     91 % 0 mm
03:24 17.2 °C 15.7 °C 1010 hPa Calm     91 % 0 mm
03:29 17.1 °C 15.6 °C 1010 hPa South 3.2 km/h 2.4 km/h 91 % 0 mm
03:34 17.1 °C 15.6 °C 1010 hPa South 1.6 km/h 0.2 km/h 91 % 0 mm
03:39 17.1 °C 15.8 °C 1010 hPa Calm     92 % 0 mm
03:44 17.1 °C 15.8 °C 1010 hPa Calm     92 % 0 mm
03:49 17.2 °C 15.9 °C 1010 hPa Calm     92 % 0 mm
03:54 17.1 °C 15.6 °C 1010 hPa Calm     91 % 0 mm
03:59 17.1 °C 15.6 °C 1010 hPa Calm     91 % 0 mm
04:04 17 °C 15.7 °C 1010 hPa Calm     92 % 0 mm
04:09 16.9 °C 15.4 °C 1010 hPa Calm     91 % 0 mm
04:14 16.9 °C 15.4 °C 1010 hPa Calm     91 % 0 mm
04:19 16.8 °C 15.5 °C 1009.7 hPa Calm     92 % 0 mm
04:24 16.8 °C 15.4 °C 1009.7 hPa Calm     92 % 0 mm
04:29 16.7 °C 15.4 °C 1009.7 hPa Calm     92 % 0 mm
04:34 16.7 °C 15.3 °C 1009.7 hPa Calm     92 % 0 mm
04:39 16.6 °C 15.3 °C 1010 hPa South 3.7 km/h 1.1 km/h 92 % 0 mm
04:44 16.6 °C 15.3 °C 1010 hPa South 4.8 km/h 2.1 km/h 92 % 0 mm
04:49 16.6 °C 15.3 °C 1010 hPa Calm     92 % 0 mm
04:54 16.4 °C 15.1 °C 1010 hPa Calm     92 % 0 mm
04:59 16.2 °C 14.9 °C 1010 hPa Calm     92 % 0 mm
05:04 16.2 °C 14.9 °C 1010 hPa Calm     92 % 0 mm
05:09 16.2 °C 14.9 °C 1010 hPa Calm     92 % 0 mm
05:14 16.2 °C 14.9 °C 1010 hPa Calm     92 % 0 mm
05:19 16.2 °C 14.9 °C 1010 hPa Calm     92 % 0 mm
05:24 16.1 °C 14.8 °C 1010 hPa Calm     92 % 0 mm
05:29 15.9 °C 14.6 °C 1010 hPa Calm     92 % 0 mm
05:34 15.8 °C 14.5 °C 1010 hPa Calm     92 % 0 mm
05:39 15.7 °C 14.4 °C 1010 hPa Calm     92 % 0 mm
05:44 15.7 °C 14.4 °C 1010 hPa Calm     92 % 0 mm
05:49 15.7 °C 14.6 °C 1010 hPa Calm     93 % 0 mm
05:54 15.7 °C 14.6 °C 1010 hPa North 3.7 km/h 0.8 km/h 93 % 0 mm
05:59 15.7 °C 14.6 °C 1010 hPa Calm     93 % 0 mm
06:04 15.7 °C 14.6 °C 1010.4 hPa Calm     93 % 0 mm
06:09 15.7 °C 14.6 °C 1010.4 hPa Calm     93 % 0 mm
06:14 15.7 °C 14.6 °C 1010.4 hPa Calm     93 % 0 mm
06:19 15.7 °C 14.6 °C 1010.4 hPa Calm     93 % 0 mm
06:24 15.8 °C 14.7 °C 1010.4 hPa Calm     93 % 0 mm
06:29 15.8 °C 14.7 °C 1010.4 hPa Calm     93 % 0 mm
06:34 15.7 °C 14.6 °C 1010.4 hPa Calm     93 % 0 mm
06:39 15.6 °C 14.4 °C 1010.4 hPa Calm     93 % 0 mm
06:44 15.5 °C 14.4 °C 1010.4 hPa Calm     93 % 0 mm
06:49 15.4 °C 14.3 °C 1010.4 hPa Calm     93 % 0 mm
06:54 15.4 °C 14.3 °C 1010.7 hPa Calm     93 % 0 mm
06:59 15.4 °C 14.3 °C 1010.7 hPa Calm     93 % 0 mm
07:04 15.4 °C 14.3 °C 1010.7 hPa Calm     93 % 0 mm
07:09 15.4 °C 14.3 °C 1010.7 hPa Calm     93 % 0 mm
07:14 15.4 °C 14.3 °C 1010.7 hPa Calm     93 % 0 mm
07:19 15.4 °C 14.5 °C 1010.7 hPa Calm     94 % 0 mm
07:24 15.6 °C 14.6 °C 1010.7 hPa Calm     94 % 0 mm
07:29 15.7 °C 14.8 °C 1011.1 hPa Calm     94 % 0 mm
07:34 15.9 °C 15.2 °C 1011.1 hPa Calm     95 % 0 mm
07:39 16.2 °C 15.4 °C 1011.1 hPa Calm     95 % 0 mm
07:44 16.6 °C 15.8 °C 1011.1 hPa Calm     95 % 0 mm
07:49 16.8 °C 16 °C 1011.1 hPa Calm     95 % 0 mm
07:54 17.1 °C 16.3 °C 1010.7 hPa Calm     95 % 0 mm
07:59 17.4 °C 16.6 °C 1010.7 hPa South 5.6 km/h 3.7 km/h 95 % 0 mm
08:04 17.8 °C 17 °C 1010.7 hPa South 5.6 km/h 2.3 km/h 95 % 0 mm
08:09 18.2 °C 17.4 °C 1010.7 hPa North 3.7 km/h 1.9 km/h 95 % 0 mm
08:14 18.5 °C 17.5 °C 1010.7 hPa South 5.6 km/h 1.6 km/h 94 % 0 mm
08:19 18.8 °C 17.8 °C 1010.7 hPa South 5.6 km/h 2.4 km/h 94 % 0 mm
08:24 19.4 °C 18.2 °C 1010.7 hPa South 11.1 km/h 6.4 km/h 93 % 0 mm
08:29 20.4 °C 18.5 °C 1010.7 hPa ESE 11.3 km/h 7.1 km/h 89 % 0 mm
08:34 21.6 °C 18.4 °C 1010.4 hPa ENE 16.7 km/h 13.5 km/h 82 % 0 mm
08:39 22.4 °C 18.2 °C 1010.7 hPa NE 18.5 km/h 13.7 km/h 77 % 0 mm
08:44 23.1 °C 17.7 °C 1010.7 hPa NE 13 km/h 13 km/h 72 % 0 mm
08:49 23.2 °C 17.7 °C 1010.7 hPa ENE 20.4 km/h 11.3 km/h 71 % 0 mm
08:54 23.3 °C 17.8 °C 1010.7 hPa ENE 9.3 km/h 5.6 km/h 71 % 0 mm
08:59 23.6 °C 17.8 °C 1010.7 hPa NNE 18.5 km/h 11.9 km/h 70 % 0 mm
09:04 23.6 °C 17.6 °C 1010.7 hPa NNE 14.8 km/h 7.9 km/h 69 % 0 mm
09:09 23.7 °C 17.7 °C 1011.1 hPa NNE 19.3 km/h 9.3 km/h 69 % 0 mm
09:14 23.9 °C 17.6 °C 1011.1 hPa NNE 18.5 km/h 8 km/h 68 % 0 mm
09:19 23.9 °C 17.7 °C 1011.1 hPa NNE 11.1 km/h 8 km/h 68 % 0 mm
09:24 24.2 °C 17.7 °C 1011.1 hPa NE 16.7 km/h 10.9 km/h 67 % 0 mm
09:29 24.3 °C 17.6 °C 1011.1 hPa ENE 18.5 km/h 11.6 km/h 66 % 0 mm
09:34 24.5 °C 17.7 °C 1011.1 hPa NNE 16.7 km/h 11.3 km/h 66 % 0 mm
09:39 24.6 °C 17.8 °C 1011.1 hPa NNE 16.7 km/h 7.2 km/h 66 % 0 mm
09:44 24.7 °C 17.7 °C 1011.1 hPa NNE 18.5 km/h 11.1 km/h 65 % 0 mm
09:49 24.8 °C 17.8 °C 1011.1 hPa NNE 16.7 km/h 10.3 km/h 65 % 0 mm
09:54 24.9 °C 17.8 °C 1011.1 hPa NNE 11.1 km/h 7.6 km/h 65 % 0 mm
09:59 24.9 °C 17.9 °C 1011.1 hPa NNE 14.8 km/h 9.8 km/h 65 % 0 mm
10:04 25.1 °C 17.8 °C 1011.1 hPa NNE 11.1 km/h 4.7 km/h 64 % 0 mm
10:09 25.2 °C 17.9 °C 1011.1 hPa NNE 9.3 km/h 1.9 km/h 64 % 0 mm
10:14 25.4 °C 17.8 °C 1011.1 hPa NE 11.1 km/h 6.6 km/h 63 % 0 mm
10:19 25.6 °C 18.1 °C 1011.1 hPa NE 8 km/h 7.1 km/h 63 % 0 mm
10:24 25.7 °C 17.9 °C 1011.1 hPa NE 14.8 km/h 6.9 km/h 62 % 0 mm
10:29 26 °C 17.9 °C 1010.7 hPa NNE 16.7 km/h 8.9 km/h 61 % 0 mm
10:34 26.1 °C 17.7 °C 1010.7 hPa NNE 16.7 km/h 14.6 km/h 60 % 0 mm
10:39 26.5 °C 18.1 °C 1010.7 hPa NNE 16.7 km/h 10.3 km/h 60 % 0 mm
10:44 26.8 °C 17.9 °C 1010.4 hPa NNE 18.5 km/h 10.1 km/h 58 % 0 mm
10:49 27 °C 18.1 °C 1010.4 hPa NNE 18.5 km/h 12.6 km/h 58 % 0 mm
10:54 27.1 °C 17.8 °C 1010.4 hPa NE 18.5 km/h 11.6 km/h 57 % 0 mm
10:59 27.5 °C 17.9 °C 1010.4 hPa NE 18.5 km/h 9.8 km/h 56 % 0 mm
11:04 27.7 °C 17.8 °C 1010.4 hPa NE 14.8 km/h 10.9 km/h 55 % 0 mm
11:09 28.2 °C 18.1 °C 1010.4 hPa NE 16.7 km/h 7.2 km/h 54 % 0 mm
11:14 28.4 °C 17.9 °C 1010.4 hPa NE 11.1 km/h 7.7 km/h 53 % 0 mm
11:19 28.3 °C 17.8 °C 1010.4 hPa NE 16.7 km/h 9.2 km/h 53 % 0 mm
11:24 28 °C 17.8 °C 1010.4 hPa NE 11.1 km/h 6 km/h 54 % 0 mm
11:29 27.8 °C 17.9 °C 1010.4 hPa NE 5.6 km/h 2.3 km/h 55 % 0 mm
11:34 27.8 °C 17.7 °C 1010 hPa NE 13 km/h 8 km/h 54 % 0 mm
11:39 28.4 °C 17.9 °C 1010 hPa NE 13 km/h 9 km/h 53 % 0 mm
11:44 28.6 °C 17.8 °C 1010 hPa NE 11.1 km/h 7.9 km/h 52 % 0 mm
11:49 29 °C 18.2 °C 1009.7 hPa NE 18.5 km/h 8.4 km/h 52 % 0 mm
11:54 29.1 °C 17.9 °C 1009.7 hPa NE 5.6 km/h 4 km/h 51 % 0 mm
11:59 29.4 °C 18.2 °C 1009.7 hPa NE 11.1 km/h 4.3 km/h 51 % 0 mm
12:04 29.4 °C 17.6 °C 1009.7 hPa NE 14.5 km/h 9.3 km/h 49 % 0 mm
12:09 29.2 °C 17.7 °C 1009.7 hPa NE 5.6 km/h 2.4 km/h 50 % 0 mm
12:14 29.1 °C 17.6 °C 1009.7 hPa NE 11.1 km/h 6.4 km/h 50 % 0 mm
12:19 28.9 °C 17.7 °C 1009.7 hPa NE 7.4 km/h 5.6 km/h 51 % 0 mm
12:24 29.2 °C 17.7 °C 1009.7 hPa NE 16.7 km/h 9.5 km/h 50 % 0 mm
12:29 29.8 °C 17.6 °C 1009.4 hPa NE 7.4 km/h 1.1 km/h 48 % 0 mm
12:34 30.1 °C 17.8 °C 1009 hPa NE 9.3 km/h 6 km/h 48 % 0 mm
12:39 30.4 °C 17.8 °C 1009 hPa NE 7.4 km/h 2.9 km/h 47 % 0 mm
12:44 30.6 °C 17.7 °C 1009 hPa NE 6.4 km/h 3.1 km/h 46 % 0 mm
12:49 30.6 °C 17.6 °C 1009 hPa NE 7.4 km/h 3.1 km/h 46 % 0 mm
12:54 30.9 °C 17.6 °C 1008.7 hPa ENE 9.3 km/h 7.2 km/h 45 % 0 mm
12:59 31.1 °C 17.4 °C 1008.7 hPa NNE 16.7 km/h 4.5 km/h 44 % 0 mm
13:04 31 °C 17.3 °C 1008.7 hPa NE 9.3 km/h 3.7 km/h 44 % 0 mm
13:09 31.4 °C 17.7 °C 1008.4 hPa NE 1.9 km/h 0.3 km/h 44 % 0 mm
13:14 31.6 °C 17.1 °C 1008.4 hPa NE 11.3 km/h 10.8 km/h 42 % 0 mm
13:19 31.7 °C 17.2 °C 1008.4 hPa NE 9.7 km/h 6.6 km/h 42 % 0 mm
13:24 31.7 °C 16.8 °C 1008 hPa NE 16.7 km/h 9.8 km/h 41 % 0 mm
13:29 31.9 °C 16.7 °C 1008 hPa NE 5.6 km/h 5.3 km/h 40 % 0 mm
13:34 31.6 °C 17.1 °C 1008 hPa NE 5.6 km/h 2.6 km/h 42 % 0 mm
13:39 32 °C 17.5 °C 1007.7 hPa NE 8 km/h 4.2 km/h 42 % 0 mm
13:44 32.2 °C 16.9 °C 1007.3 hPa NE 9.3 km/h 4 km/h 40 % 0 mm
13:49 31.9 °C 16.7 °C 1007.3 hPa NE 9.3 km/h 7.2 km/h 40 % 0 mm
13:54 31.7 °C 16.8 °C 1007.3 hPa NE 11.1 km/h 8.5 km/h 41 % 0 mm
13:59 31.3 °C 16.4 °C 1007.7 hPa NE 5.6 km/h 4.3 km/h 41 % 0 mm
14:04 31.1 °C 16.7 °C 1007.3 hPa NE 7.4 km/h 5 km/h 42 % 0 mm
14:09 30.8 °C 16.4 °C 1007.3 hPa NE 5.6 km/h 3.1 km/h 42 % 0 mm
14:14 30.7 °C 16.3 °C 1007.3 hPa NE 1.9 km/h 2.3 km/h 42 % 0 mm
14:19 30.6 °C 16.2 °C 1007 hPa NE 7.4 km/h 5.1 km/h 42 % 0 mm
14:24 30.5 °C 16.9 °C 1007 hPa NE 11.3 km/h 6 km/h 44 % 0 mm
14:29 30.3 °C 16.7 °C 1007.3 hPa NE 9.7 km/h 9.5 km/h 44 % 0 mm
14:34 30.1 °C 16.9 °C 1007.3 hPa NNE 12.9 km/h 8.5 km/h 45 % 0 mm
14:39 29.7 °C 16.9 °C 1007.7 hPa West 18.5 km/h 13.5 km/h 46 % 0 mm
14:44 26.9 °C 16.5 °C 1008.7 hPa West 50 km/h 32.5 km/h 53 % 0 mm
14:49 22.9 °C 17.8 °C 1009 hPa NW 40.7 km/h 23.7 km/h 73 % 3.3 mm
14:54 21.2 °C 18.3 °C 1010 hPa NW 51.8 km/h 36.7 km/h 84 % 11.68 mm
14:59 20.7 °C 18.6 °C 1010 hPa North 31.5 km/h 18.8 km/h 88 % 19.81 mm
15:04 20.5 °C 18.6 °C 1010 hPa WNW 14.8 km/h 10.6 km/h 89 % 26.42 mm
15:09 20.3 °C 18.6 °C 1010 hPa WNW 13 km/h 9 km/h 90 % 30.99 mm
15:14 20.2 °C 18.6 °C 1009.7 hPa WSW 16.7 km/h 13 km/h 90 % 32.77 mm
15:19 20.1 °C 18.6 °C 1009.4 hPa WSW 18.5 km/h 12.2 km/h 91 % 34.54 mm
15:24 19.9 °C 18.2 °C 1009.4 hPa North 14.8 km/h 10.5 km/h 90 % 35.31 mm
15:29 19.8 °C 18.1 °C 1009.4 hPa SW 7.4 km/h 5 km/h 90 % 35.31 mm
15:34 19.7 °C 17.8 °C 1009.4 hPa North 14.8 km/h 3.4 km/h 89 % 35.31 mm
15:39 19.6 °C 17.7 °C 1009 hPa SW 5.6 km/h 1.1 km/h 89 % 35.56 mm
15:44 19.6 °C 17.7 °C 1009.4 hPa SW 5.6 km/h 2.1 km/h 89 % 35.56 mm
15:49 19.6 °C 17.7 °C 1010 hPa North 3.2 km/h   89 % 32.51 mm
15:54 19.5 °C 17.6 °C 1010.7 hPa North 11.1 km/h 11.1 km/h 89 % 24.38 mm
15:59 19.6 °C 17.9 °C 1010.7 hPa NW 25.9 km/h 14 km/h 90 % 16.26 mm
16:04 19.5 °C 17.8 °C 1010.4 hPa North 14.8 km/h 10.5 km/h 90 % 9.91 mm
16:09 19.4 °C 17.8 °C 1010.4 hPa WNW 16.7 km/h 9.7 km/h 90 % 5.33 mm
16:14 19.4 °C 17.7 °C 1010 hPa WNW 7.4 km/h 6.3 km/h 90 % 4.06 mm
16:19 19.3 °C 17.8 °C 1010 hPa North 7.4 km/h 5.1 km/h 91 % 2.54 mm
16:24 19.3 °C 17.8 °C 1009.7 hPa WNW 13 km/h 7.6 km/h 91 % 2.03 mm
16:29 19.3 °C 17.8 °C 1009.7 hPa WNW 13 km/h 7.9 km/h 91 % 2.29 mm
16:34 19.3 °C 17.8 °C 1009.7 hPa North 13 km/h 8 km/h 91 % 2.54 mm
16:39 19.3 °C 17.8 °C 1010 hPa North 14.8 km/h 7.4 km/h 91 % 2.79 mm
16:44 19.3 °C 17.7 °C 1010.4 hPa North 11.1 km/h 7.1 km/h 90 % 3.3 mm
16:49 19.3 °C 17.6 °C 1010.4 hPa West 5.6 km/h 1.4 km/h 90 % 3.3 mm
16:54 19.3 °C 17.6 °C 1010.4 hPa North 4.8 km/h 2.7 km/h 90 % 3.3 mm
16:59 19.4 °C 17.9 °C 1010.7 hPa North 9.3 km/h 6 km/h 91 % 3.56 mm
17:04 19.5 °C 18.2 °C 1010.7 hPa West 9.7 km/h 8.4 km/h 92 % 3.81 mm
17:09 19.4 °C 18.1 °C 1010.7 hPa West 7.4 km/h 6.8 km/h 92 % 3.81 mm
17:14 19.3 °C 18 °C 1010.7 hPa Calm     92 % 3.3 mm
17:19 19.4 °C 18.1 °C 1010.4 hPa North 3.7 km/h 1.1 km/h 92 % 3.3 mm
17:24 19.4 °C 18.1 °C 1010.4 hPa Calm     92 % 3.56 mm
17:29 19.5 °C 18.2 °C 1010.7 hPa West 5.6 km/h 2.9 km/h 92 % 3.3 mm
17:34 19.4 °C 18.3 °C 1010.7 hPa North 5.6 km/h 0.5 km/h 93 % 2.79 mm
17:39 19.5 °C 18.3 °C 1010.7 hPa West 3.7 km/h 1.1 km/h 93 % 2.29 mm
17:44 19.5 °C 18.3 °C 1010.7 hPa West 5.6 km/h 3.4 km/h 93 % 2.29 mm
17:49 19.4 °C 18.3 °C 1010.7 hPa West 5.6 km/h   93 % 2.03 mm
17:54 19.4 °C 18.3 °C 1010.4 hPa Calm     93 % 1.78 mm
17:59 19.5 °C 18.3 °C 1010.4 hPa Calm     93 % 1.52 mm
18:04 19.4 °C 18.3 °C 1010.4 hPa Calm     93 % 1.27 mm
18:09 19.4 °C 18.2 °C 1010.4 hPa North 3.7 km/h 2.4 km/h 93 % 1.02 mm
18:14 19.3 °C 18.2 °C 1010 hPa North 3.7 km/h 2.1 km/h 93 % 1.02 mm
18:19 19.4 °C 18.4 °C 1009.7 hPa West 5.6 km/h 4.8 km/h 94 % 1.02 mm
18:24 19.4 °C 18.3 °C 1009.4 hPa West 5.6 km/h 5.1 km/h 93 % 0.76 mm
18:29 19.4 °C 18.2 °C 1009.4 hPa West 6.4 km/h 4.3 km/h 93 % 0.76 mm
18:34 19.4 °C 18.2 °C 1009 hPa West 11.1 km/h 8 km/h 93 % 1.02 mm
18:39 19.3 °C 18.3 °C 1009 hPa West 5.6 km/h 0.3 km/h 94 % 1.27 mm
18:44 19.3 °C 18.3 °C 1009 hPa West 1.9 km/h 2.3 km/h 94 % 1.02 mm
18:49 19.3 °C 18.3 °C 1009 hPa West 4.8 km/h 4.5 km/h 94 % 1.02 mm
18:54 19.2 °C 18.2 °C 1009 hPa West 5.6 km/h 3.4 km/h 94 % 1.02 mm
18:59 19.1 °C 17.9 °C 1009 hPa West 1.9 km/h 1.4 km/h 93 % 0.76 mm
19:04 19.1 °C 17.9 °C 1009 hPa West 7.4 km/h 4.2 km/h 93 % 0.76 mm
19:09 18.9 °C 17.8 °C 1009.4 hPa North 5.6 km/h   93 % 0.76 mm
19:14 18.9 °C 17.9 °C 1009 hPa Calm     94 % 0.51 mm
19:19 18.9 °C 17.9 °C 1009 hPa West 5.6 km/h 3.5 km/h 94 % 0.51 mm
19:24 18.8 °C 17.7 °C 1009 hPa North 5.6 km/h 4 km/h 93 % 0.51 mm
19:29 18.8 °C 17.8 °C 1009 hPa West 5.6 km/h 2.9 km/h 94 % 0.51 mm
19:34 18.8 °C 17.8 °C 1009 hPa Calm   0.5 km/h 94 % 0.25 mm
19:39 18.8 °C 17.6 °C 1009 hPa West 3.7 km/h 0.3 km/h 93 % 0 mm
19:44 18.7 °C 17.6 °C 1009 hPa West 5.6 km/h 0.8 km/h 93 % 0 mm
19:49 18.8 °C 17.6 °C 1009 hPa West 5.6 km/h 4.3 km/h 93 % 0 mm
19:54 18.9 °C 17.7 °C 1009 hPa West 5.6 km/h 4.8 km/h 93 % 0 mm
19:59 18.9 °C 17.9 °C 1009 hPa North 5.6 km/h 3.4 km/h 94 % 0 mm
20:04 18.9 °C 17.8 °C 1009 hPa West 9.7 km/h 5.5 km/h 93 % 0 mm
20:09 18.8 °C 17.6 °C 1009 hPa WSW 9.3 km/h 6.4 km/h 93 % 0 mm
20:14 18.8 °C 17.4 °C 1009 hPa SSW 11.1 km/h 7.1 km/h 92 % 0 mm
20:19 18.9 °C 17.6 °C 1009 hPa SSW 9.3 km/h 6.3 km/h 92 % 0 mm
20:24 18.9 °C 17.4 °C 1009 hPa SSW 11.1 km/h 5.1 km/h 91 % 0 mm
20:29 18.9 °C 17.6 °C 1009.4 hPa SSW 5.6 km/h 4 km/h 92 % 0 mm
20:34 18.9 °C 17.4 °C 1009.4 hPa SSW 5.6 km/h 4 km/h 91 % 0 mm
20:39 18.9 °C 17.6 °C 1009.4 hPa SSW 11.1 km/h 4.8 km/h 92 % 0 mm
20:44 18.9 °C 17.4 °C 1009.4 hPa North 7.4 km/h 6.6 km/h 91 % 0 mm
20:49 18.9 °C 17.4 °C 1009.4 hPa North 8 km/h 5.3 km/h 91 % 0 mm
20:54 18.8 °C 17.3 °C 1009 hPa SSW 5.6 km/h 4.2 km/h 91 % 0 mm
20:59 18.8 °C 17.3 °C 1009 hPa SSW 7.4 km/h 5.5 km/h 91 % 0 mm
21:04 18.7 °C 17.2 °C 1009 hPa SSW 9.3 km/h 5.5 km/h 91 % 0 mm
21:09 18.7 °C 17.2 °C 1009 hPa SSW 7.4 km/h 6 km/h 91 % 0 mm
21:14 18.6 °C 17.1 °C 1009 hPa SSW 9.3 km/h 2.4 km/h 91 % 0 mm
21:19 18.6 °C 17.1 °C 1008.7 hPa SSW 9.7 km/h 8.4 km/h 91 % 0 mm
21:24 18.6 °C 17.1 °C 1009 hPa SSW 11.1 km/h 2.9 km/h 91 % 0 mm
21:29 18.6 °C 17.1 °C 1009.4 hPa SSW 13 km/h 7.4 km/h 91 % 0 mm
21:34 18.6 °C 17.1 °C 1009.4 hPa SSW 9.3 km/h 4.7 km/h 91 % 0 mm
21:39 18.6 °C 17.1 °C 1009.4 hPa SSW 5.6 km/h 3.2 km/h 91 % 0 mm
21:44 18.6 °C 17.1 °C 1009.7 hPa SSW 5.6 km/h 5.3 km/h 91 % 0 mm
21:49 18.6 °C 17.1 °C 1009.7 hPa SSW 4.8 km/h 3.9 km/h 91 % 0 mm
21:54 18.6 °C 17.1 °C 1009.7 hPa SSW 5.6 km/h 3.1 km/h 91 % 0 mm
21:59 18.6 °C 17.1 °C 1009.7 hPa SSW 8 km/h 6 km/h 91 % 0 mm
22:04 18.6 °C 17.1 °C 1009.7 hPa North 5.6 km/h 2.9 km/h 91 % 0 mm
22:09 18.5 °C 17 °C 1010 hPa SSW 5.6 km/h 3.9 km/h 91 % 0 mm
22:14 18.5 °C 17.2 °C 1009.7 hPa SSW 1.9 km/h   92 % 0 mm
22:19 18.5 °C 17.2 °C 1009.7 hPa SSW 5.6 km/h 3.7 km/h 92 % 0 mm
22:24 18.4 °C 17.1 °C 1010 hPa SSW 5.6 km/h 2.9 km/h 92 % 0 mm
22:29 18.4 °C 17.1 °C 1010 hPa SSW 3.7 km/h 1.1 km/h 92 % 0 mm
22:34 18.4 °C 17.1 °C 1009.7 hPa SSW 5.6 km/h 2.1 km/h 92 % 0 mm
22:39 18.4 °C 17.1 °C 1010 hPa Calm     92 % 0 mm
22:44 18.3 °C 17 °C 1010 hPa Calm     92 % 0 mm
22:49 18.3 °C 16.9 °C 1010 hPa Calm     92 % 0 mm
22:54 18.2 °C 16.9 °C 1010 hPa Calm     92 % 0 mm
22:59 18.2 °C 16.8 °C 1010 hPa Calm     92 % 0 mm
23:04 18.1 °C 16.8 °C 1010 hPa Calm     92 % 0 mm
23:09 18.1 °C 16.9 °C 1010 hPa Calm     93 % 0 mm
23:14 17.9 °C 16.8 °C 1010 hPa Calm     93 % 0 mm
23:19 17.9 °C 16.7 °C 1009.7 hPa Calm     93 % 0 mm
23:24 17.8 °C 16.7 °C 1009.7 hPa Calm     93 % 0 mm
23:29 17.8 °C 16.7 °C 1009.7 hPa Calm     93 % 0 mm
23:34 17.8 °C 16.7 °C 1009.7 hPa Calm     93 % 0 mm
23:39 17.8 °C 16.6 °C 1009.7 hPa Calm     93 % 0 mm
23:44 17.7 °C 16.6 °C 1009.7 hPa Calm     93 % 0 mm
23:49 17.7 °C 16.7 °C 1009.7 hPa Calm     94 % 0 mm
23:54 17.7 °C 16.7 °C 1009.7 hPa Calm     94 % 0 mm
23:59 17.6 °C 16.4 °C 1009.4 hPa Calm     93 % 0 mm
Ararat Weather
Compliments of Weather Underground - 2.25 mb
Click here to send mail.


ABOUT

Live weather data from Ararat, Victoria, Australia, 3377
Data uploaded from Cumulus every 5 minutes to Weather Underground.
This site then downloads the raw data for formatting and display.
Metric and imperial data can be displayed. Graphs and historical data available.
Includes Sun and Moon times and rain image live from BOM.

Check out Ararat Weather on Facebook, Twitter and Google +

Help support ongoing costs by checking out the ads





Follow @AraratWeather